Terug naar catalogus

ONEWEB-0697

ActiefCommunicatiePO
NORAD 61603·PAYLOAD·🇬🇧 United Kingdom

Gelanceerd Oct 20, 2024 vanaf Vandenberg Space Force Base

Loading…

Volgende Passages (komende 24 uur)

TLE

VersSource: CelesTrak SupGP

Epoch: Sep 14, 2026, 14:14 UTC

1 61603C 24188K   26257.59323333  .00000307  00000+0  86860-3 0  2579
2 61603  87.8979   3.2910 0001162  84.3203  33.8877 13.11419511    15

Volg ONEWEB-0697 in realtime met AllMySat

Download on the App Store